#timestamp,LO_Frequency,Hit,StdDev 
1506009615.1,286047002.2,N
1506009616.0,286047002.2,N
1506009635.8,286047001.8,N
1506009655.6,286047004.0,N
1506009675.5,286047001.6,N
1506009695.3,286046996.7,N
1506009715.1,286047002.6,N
1506009735.8,286047002.1,N
1506009755.7,286046997.3,N
1506009775.5,286046993.3,N
1506009795.3,286046993.0,N
1506009815.2,286046996.0,N
1506009835.9,286046994.5,N
1506009855.7,286046993.2,N
1506009875.6,286046988.1,Y
1506009895.4,286046989.8,P
1506009915.2,286046988.3,N
1506009935.1,286046986.4,N
1506009936.0,286046986.4,N
1506009955.8,286046986.7,N
1506009975.6,286046982.8,Y
1506009995.5,286046992.2,P
1506010015.3,286046995.4,P
1506010035.1,286046997.4,N
1506010055.9,286046996.5,N
1506010075.7,286046996.6,N
1506010095.5,286046995.8,N
1506010115.4,286046995.6,N
1506010135.2,286046995.4,N
1506010155.0,286046996.1,N
1506010155.9,286046996.1,N
1506010175.8,286046993.3,Y
1506010195.6,286046995.5,P
1506010215.4,286046996.9,P
1506010235.3,286046995.1,P
1506010255.1,286046995.6,Y
1506010256.0,286046995.6,P
1506010275.8,286046998.1,P
1506010295.7,286047003.7,P
1506010315.5,286047003.9,N
1506010335.3,286047004.3,N
1506010355.2,286047004.4,N
1506010375.9,286047002.4,N
1506010395.7,286047003.5,N
1506010415.5,286047001.6,N
1506010435.4,286047001.0,N
1506010455.2,286046997.8,N
1506010475.0,286046995.0,N
1506010475.9,286046995.0,N
1506010495.8,286046997.7,N
1506010515.6,286046994.0,N
1506010535.4,286046995.7,N
1506010555.3,286046994.2,N
1506010575.1,286046995.7,N
1506010576.0,286046995.7,N
1506010595.8,286046996.0,N
1506010615.7,286046992.2,N
1506010635.5,286046991.2,N
1506010655.3,286046996.2,N
1506010675.2,286046994.9,N
1506010695.9,286046996.3,N
1506010715.7,286046993.9,N
1506010735.5,286046990.3,N
1506010755.4,286046994.7,N
1506010775.2,286046991.3,N
1506010795.0,286046990.7,N
1506010795.9,286046990.7,N
1506010815.8,286046988.8,N
1506010835.6,286046985.3,Y
1506010855.4,286046987.1,P
1506010875.3,286046987.0,N
1506010895.1,286046988.1,N
1506010915.8,286046987.8,Y
1506010935.7,286046993.9,P
1506010955.5,286046995.2,N
1506010975.3,286046999.1,N
1506010995.2,286046999.1,N
1506011015.9,286046998.5,N
1506011035.7,286046996.0,N
1506011055.6,286046994.0,N
1506011075.4,286046993.2,N
1506011095.2,286046991.0,Y
1506011115.1,286046996.4,P
1506011116.0,286046996.4,P
1506011135.8,286046993.5,P
1506011155.6,286046992.9,Y
1506011175.5,286046998.7,P
1506011195.3,286046998.2,N
1506011215.1,286046999.8,N
1506011235.9,286047000.5,N
1506011255.7,286047002.8,N
1506011275.5,286047001.5,N
1506011295.4,286047002.1,N
1506011315.2,286046999.5,N
1506011335.0,286046997.1,N
1506011335.9,286046997.1,N
1506011355.7,286046999.6,N
1506011375.6,286046998.4,N
1506011395.4,286047002.8,N
1506011415.2,286047004.0,N
1506011435.1,286047005.2,N
1506011436.0,286047005.2,N
1506011455.8,286046998.4,N
1506011475.6,286046997.8,N
1506011495.5,286047000.0,N
1506011515.3,286046996.6,N
1506011535.1,286046998.0,N
1506011555.9,286046998.6,N
1506011575.7,286046998.5,N
1506011595.5,286047001.1,N
1506011615.4,286046993.5,N
1506011635.2,286046997.9,N
1506011655.0,286046996.8,N
1506011655.9,286046996.8,N
1506011675.7,286046996.6,N
1506011695.6,286046996.6,N
1506011715.4,286046999.4,N
1506011735.2,286046995.6,N
1506011755.1,286046994.6,N
1506011756.0,286046994.6,N
1506011775.8,286046990.6,Y
1506011795.6,286046992.6,P
1506011815.5,286046990.8,N
1506011835.3,286046991.5,N
1506011855.1,286046989.3,Y
1506011875.9,286046995.9,P
1506011895.7,286046996.2,P
1506011915.5,286046993.8,P
1506011935.4,286046994.5,Y
1506011955.2,286046996.7,P
1506011975.0,286046997.7,N
1506011975.9,286046997.7,N
1506011995.8,286046995.7,Y
1506012015.6,286046997.3,P
1506012035.4,286046997.3,P
1506012055.3,286046999.4,N
1506012075.1,286047001.2,N
1506012095.8,286046998.9,N
1506012115.7,286046996.8,N
1506012135.5,286046995.0,Y
1506012155.3,286046997.8,P
1506012175.2,286046996.9,P
1506012195.0,286046995.1,P
1506012195.9,286046995.1,Y
1506012215.8,286046997.1,P
1506012235.6,286046996.5,P
1506012255.4,286046997.4,P
1506012275.2,286046999.2,N
1506012295.1,286046997.1,Y
1506012296.0,286046997.1,P
1506012315.8,286046999.8,N
1506012335.6,286047000.7,N
1506012355.5,286046998.8,N
1506012375.3,286047000.3,N
1506012395.1,286047000.5,N
1506012415.9,286047001.2,N
1506012435.7,286047000.4,N
1506012455.5,286047001.6,N
1506012475.4,286047002.2,N
1506012495.2,286047002.7,N
1506012515.0,286047000.1,N
1506012515.9,286047000.1,N
1506012535.8,286047000.8,N
1506012555.6,286046998.1,N
1506012575.4,286047001.2,N
1506012595.3,286047000.8,N
1506012615.1,286047000.9,N
1506012616.0,286047000.9,N
1506012635.8,286047001.0,N
1506012655.6,286046998.4,N
1506012675.5,286046999.2,N
1506012695.3,286046999.2,N
1506012715.1,286047000.9,N
1506012735.9,286047001.0,N
1506012755.7,286046998.2,N
1506012775.5,286047000.3,N
1506012795.4,286047000.6,N
1506012815.2,286047000.2,N
1506012835.0,286047000.2,N
1506012835.9,286047000.2,N
1506012855.8,286046999.8,N
1506012875.6,286047000.3,N
1506012895.4,286047002.2,N
1506012915.3,286047002.3,N
1506012935.1,286047002.0,N
1506012936.0,286047002.0,N
1506012955.8,286047002.2,N
1506012975.7,286046998.5,N
1506012995.5,286046999.8,N
1506013015.3,286047001.4,N
1506013035.1,286047002.1,N
1506013055.9,286047004.1,Y
1506013075.7,286047001.5,P
1506013095.5,286047002.5,P
1506013115.4,286047002.7,P
1506013135.2,286047001.3,N
1506013155.0,286047001.5,N
1506013155.9,286047001.5,N
1506013175.8,286046996.8,Y
1506013195.6,286046995.7,P
